Location: Unspecified
(43.4680°N, 87.1740°E)
Time: 20:56:58
(UTC+00:00)

ATLAS 3B R/B - Pass Details

Date: 17 April 2021
Orbit: 1006 x 1189 km, 63.8° (Epoch: 21 April)

Event Time Altitude Azimuth Distance (km) Brightness Sun altitude
Rises 16:06:18 0° 317° (NW) 3,913 6.9 -28.8°
Reaches altitude 10° 16:09:10 10° 309° (NW) 2,980 5.9 -29.1°
Maximum altitude 16:15:25 34° 247° (WSW) 1,772 3.8 -29.8°
Enters shadow 16:16:52 32° 224° (SW) 1,867 3.8 -29.9°
